Wind_Speed
20 20 20 19 20 20 21 21 21 20 20 19 19 19 19 19 19 19 19 19 20 20 20 20 20 20 20 20 21 21 20 20 20 21 21 21 21 21 22 22 22 21 21 21
21 21 21 21 20 21 21 21 21 21 20 20 19 19 19 19 19 19 20 21 21 21 21 21 21 21 21 22 22 21 21 20 20 21 21 22 22 22 22 22 22 21 21 21
22 23 23 22 21 21 21 21 21 21 20 20 20 20 20 20 20 21 21 22 22 22 22 22 22 22 22 22 22 21 21 21 21 21 21 21 21 22 22 22 22 21 20 21
24 24 24 22 21 22 22 22 22 21 21 21 21 21 21 21 21 22 22 22 22 23 23 23 23 23 22 22 22 22 21 21 22 21 21 21 21 21 21 22 21 21 21 22
25 26 24 22 22 22 22 21 21 21 21 22 22 22 22 22 22 23 23 23 23 23 23 24 24 24 23 22 22 21 21 21 21 21 21 21 21 22 22 22 22 22 22 22
26 26 24 22 23 23 23 22 22 22 22 23 22 22 22 23 23 23 24 24 24 24 24 24 24 24 24 23 22 21 21 20 20 20 21 21 22 22 22 22 23 23 23 24
27 27 25 23 24 24 24 23 23 23 23 23 23 23 23 23 23 23 24 24 25 25 24 24 24 24 23 22 22 22 21 20 20 21 21 22 22 22 23 23 24 24 24 24
27 27 26 24 24 24 24 24 24 24 24 24 24 24 23 24 24 24 25 25 25 25 24 24 23 23 22 22 22 22 21 21 21 21 22 23 23 24 24 25 25 25 25 24
28 27 26 25 26 25 25 25 24 24 24 24 25 25 25 25 25 25 26 26 25 25 25 24 24 23 23 22 22 22 22 22 22 22 22 23 24 24 25 26 26 26 26 25
29 28 27 27 26 26 26 26 25 25 25 25 25 26 26 25 25 26 26 26 26 25 25 25 24 24 23 23 23 23 23 23 23 23 23 24 24 25 26 26 27 26 26 26
29 28 29 28 27 26 26 26 25 25 25 26 26 26 26 26 26 26 26 26 26 26 25 25 24 24 24 24 24 24 24 24 24 24 24 24 25 26 26 26 26 26 26 26
30 29 29 28 27 27 27 26 26 26 26 26 26 26 26 26 26 26 26 26 26 26 26 25 25 25 25 25 25 24 24 24 24 25 25 25 26 26 26 26 26 26 27 27
29 30 30 29 28 28 28 28 28 27 27 28 28 27 27 27 27 27 27 27 27 27 27 26 26 26 26 26 26 26 26 26 26 26 26 26 26 27 26 26 26 26 27 27
30 30 31 30 29 29 29 29 29 29 29 29 29 28 28 28 28 28 28 28 28 28 28 27 27 27 27 27 27 27 27 27 27 27 27 27 27 27 27 27 27 26 27 27
30 31 31 31 30 30 30 30 30 29 29 29 29 29 29 29 29 29 29 29 29 29 29 29 28 29 28 28 28 28 28 28 28 28 28 28 28 28 27 27 27 27 26 26
31 32 32 32 32 31 31 31 30 30 30 29 29 30 30 29 29 30 30 29 29 29 29 29 29 29 29 29 29 29 28 28 29 29 29 29 28 28 28 28 28 27 27 27
31 32 33 33 32 32 32 32 31 31 31 31 30 30 30 30 30 30 30 30 30 30 29 29 30 29 29 29 29 30 30 29 29 29 30 30 29 28 28 27 28 28 27 28
31 32 32 32 32 33 33 32 32 32 31 31 31 31 30 30 30 30 30 30 30 30 30 30 30 30 30 30 30 30 29 30 30 30 31 30 29 28 28 28 28 28 28 28
31 32 32 32 32 32 32 32 32 32 32 31 31 31 31 31 30 30 30 31 31 30 30 30 30 30 30 30 30 30 30 30 31 31 31 30 30 29 29 29 30 29 29 28
29 29 30 30 30 31 31 31 31 31 31 31 31 31 31 31 31 31 31 31 31 30 30 31 30 30 30 30 31 30 31 31 31 30 30 30 29 29 29 30 30 30 29 30
29 29 30 30 30 31 31 31 31 31 30 31 31 31 31 31 31 31 31 31 31 31 31 31 31 31 30 30 31 31 31 31 30 30 30 30 30 29 29 29 29 30 30 30
29 29 30 30 30 31 31 31 31 31 31 31 31 31 32 31 32 31 31 31 31 31 31 31 31 31 31 31 31 30 30 30 30 30 30 29 29 29 29 30 29 29 29 29
28 29 29 29 29 30 30 30 31 31 31 30 31 31 32 32 32 31 30 31 32 32 32 32 32 32 31 31 31 31 31 30 30 30 30 29 29 29 30 29 29 29 29 29
28 28 28 29 29 29 29 29 30 30 30 30 31 31 32 32 32 32 32 32 32 33 33 32 32 32 31 31 31 31 31 31 31 30 30 30 29 29 29 29 29 29 28 27
28 28 28 28 28 28 28 28 29 29 29 29 30 31 31 31 31 30 31 31 32 32 32 32 32 32 32 31 31 31 31 30 30 30 30 30 29 29 29 29 28 28 28 27
28 28 28 28 29 29 29 29 29 30 30 30 30 30 31 31 30 30 30 30 30 31 31 31 31 31 31 31 31 30 30 29 29 30 30 30 30 30 30 30 29 29 29 29
28 29 29 30 30 30 30 31 31 31 31 31 31 31 30 30 30 30 31 31 31 31 31 31 31 31 31 31 31 30 29 29 29 29 29 30 30 30 30 29 29 29 28 28
Wind_Direction
267 270 271 271 272 273 275 277 280 282 284 286 287 286 287 289 293 297 298 300 302 300 299 299 298 296 295 292 290 286 281 279 275 274 274 272 271 272 270 270 269 270 269 270
266 269 271 272 272 273 274 277 280 282 283 285 286 287 287 288 290 293 295 298 301 301 300 299 298 296 294 291 289 286 283 280 276 274 274 272 270 272 271 270 269 269 269 270
266 269 271 272 271 271 273 276 278 280 282 283 284 286 286 285 288 292 294 296 298 300 299 299 299 298 295 293 290 287 285 281 278 276 276 274 271 271 271 269 269 269 270 271
267 268 270 271 271 272 273 276 277 278 281 283 282 284 284 285 287 290 292 294 296 299 300 299 299 298 297 296 292 287 283 280 279 276 276 275 276 275 273 271 271 272 273 271
267 269 270 268 270 272 273 274 276 277 280 283 282 282 283 285 288 289 291 292 294 296 298 300 298 297 297 295 293 290 285 281 278 276 275 275 276 276 276 274 274 274 274 273
267 268 269 268 268 271 273 273 275 276 279 282 283 282 282 283 287 288 290 292 292 294 296 298 299 297 294 291 290 288 287 284 280 276 276 276 276 277 277 277 276 275 274 274
266 267 268 268 269 271 272 274 274 276 279 280 282 284 284 284 287 288 291 292 293 293 295 296 298 298 295 290 287 287 285 284 282 280 279 279 279 278 278 279 278 277 275 274
263 265 267 267 268 269 272 273 274 276 278 279 281 283 284 285 286 288 291 293 293 293 294 295 296 296 295 293 289 287 285 284 284 283 282 281 280 280 280 280 279 278 277 274
262 264 265 265 268 270 272 274 275 275 277 278 280 280 282 285 286 288 290 291 291 291 292 293 293 293 293 292 291 288 283 283 284 284 283 282 282 281 280 281 280 278 276 275
260 262 263 265 268 270 272 274 276 277 277 278 279 280 281 283 285 287 289 291 291 291 292 291 291 291 291 290 289 289 288 284 283 284 285 284 284 283 282 281 280 277 275 275
261 261 262 264 266 268 270 273 275 277 277 278 279 280 280 281 283 285 288 291 293 293 292 291 291 291 290 290 289 288 289 290 286 286 286 285 285 284 282 281 279 277 276 274
262 263 264 264 265 267 270 272 274 276 277 277 279 279 279 280 283 285 287 289 291 292 291 289 289 290 290 291 290 289 289 290 289 288 287 286 286 285 283 281 278 277 276 275
261 262 263 265 265 267 270 273 275 276 276 276 278 279 279 280 282 283 285 286 289 290 289 288 289 290 290 290 289 288 288 288 289 289 289 289 287 285 282 280 280 279 278 276
260 261 262 265 266 267 270 273 274 275 277 278 278 279 280 280 281 283 284 285 286 287 287 287 288 289 290 289 288 287 287 288 288 289 289 288 288 286 283 281 282 281 280 279
259 261 263 264 266 267 270 272 274 275 277 277 278 278 279 281 282 283 284 284 284 285 285 285 286 288 288 287 287 287 287 287 288 289 288 288 288 286 284 282 283 283 280 279
260 262 263 265 266 268 269 271 273 275 276 277 278 279 279 280 281 282 283 284 283 284 284 284 285 286 286 286 286 286 287 288 288 288 287 288 287 286 284 283 283 283 282 281
261 262 264 266 266 267 268 270 272 274 275 276 278 279 280 280 281 282 282 282 283 283 284 284 284 285 285 285 285 286 286 287 288 287 287 287 286 284 283 282 282 283 283 283
263 263 264 265 266 267 268 269 271 274 275 275 277 278 279 280 282 282 282 282 283 283 283 284 284 284 284 284 284 285 287 287 287 288 288 287 285 284 281 281 283 282 282 282
266 266 264 264 265 268 270 271 272 274 275 276 277 277 277 279 281 282 282 282 282 282 283 284 285 285 284 283 283 285 287 287 287 288 288 286 284 283 281 281 283 282 280 281
266 267 266 266 266 268 270 272 273 274 275 276 277 278 278 278 280 281 281 281 281 281 282 283 285 285 284 283 283 284 286 286 287 287 287 285 283 283 281 281 282 282 281 281
267 269 269 268 268 270 271 273 274 274 274 275 276 278 278 279 279 280 280 280 281 281 282 283 283 284 285 285 284 284 286 286 286 287 286 285 284 284 283 282 281 281 281 280
269 270 270 269 270 271 272 273 273 274 275 276 276 277 279 280 280 279 280 280 281 281 282 283 283 284 285 285 284 284 285 285 286 286 285 285 284 284 284 283 282 281 281 280
269 270 270 270 270 272 272 273 274 275 276 276 277 277 278 279 280 279 280 280 282 282 282 283 283 283 285 285 284 284 283 283 285 285 284 284 284 284 285 283 284 283 282 279
268 269 270 270 271 272 272 273 275 276 276 277 277 278 278 278 279 280 281 281 281 282 283 282 282 282 283 285 285 284 283 283 282 281 281 282 282 283 284 284 285 284 282 280
266 267 269 270 271 272 273 274 276 278 278 278 278 278 278 279 279 280 281 282 282 283 283 282 282 282 282 283 284 285 285 284 281 279 280 280 281 282 282 282 283 283 281 280
267 268 269 270 271 272 273 274 277 280 279 278 279 279 279 279 280 281 282 282 284 285 285 284 284 284 283 283 283 284 285 285 283 281 279 278 279 281 281 282 281 281 280 280
267 268 270 271 272 273 274 274 276 278 279 279 279 280 281 280 281 281 282 283 284 285 286 286 286 285 284 284 283 283 283 283 283 282 281 282 281 281 281 280 281 282 282 281
Height
5818 5818 5819 5819 5819 5818 5818 5818 5818 5818 5817 5816 5815 5814 5812 5811 5809 5807 5805 5803 5801 5799 5796 5794 5792 5790 5788 5786 5784 5783 5782 5781 5781 5781 5781 5781 5781 5781 5780 5780 5781 5781 5781 5781
5813 5813 5813 5814 5814 5813 5813 5812 5812 5812 5812 5811 5809 5808 5807 5806 5804 5802 5801 5798 5796 5794 5791 5789 5787 5784 5782 5780 5779 5777 5776 5776 5775 5775 5775 5774 5774 5774 5774 5774 5774 5774 5775 5775
5807 5807 5807 5808 5808 5808 5808 5807 5807 5806 5807 5805 5804 5803 5802 5800 5799 5797 5795 5793 5791 5788 5786 5783 5781 5778 5776 5774 5772 5771 5770 5769 5769 5769 5768 5768 5768 5768 5768 5768 5768 5768 5768 5768
5800 5801 5801 5805 5803 5802 5802 5801 5801 5800 5800 5799 5798 5797 5796 5794 5793 5791 5789 5787 5785 5783 5780 5777 5775 5772 5770 5768 5766 5765 5764 5763 5763 5762 5762 5762 5762 5762 5761 5761 5762 5762 5762 5762
5794 5794 5795 5797 5796 5796 5796 5796 5795 5794 5794 5793 5792 5791 5790 5788 5787 5785 5783 5781 5779 5777 5774 5771 5768 5766 5764 5762 5760 5759 5758 5757 5756 5756 5756 5756 5756 5755 5755 5755 5755 5755 5755 5755
5787 5787 5788 5791 5790 5789 5790 5790 5789 5788 5788 5787 5786 5785 5785 5782 5781 5779 5777 5775 5773 5770 5768 5765 5762 5760 5757 5756 5754 5753 5752 5751 5750 5750 5749 5749 5749 5749 5748 5748 5748 5748 5748 5747
5780 5779 5781 5784 5783 5783 5784 5785 5783 5782 5781 5780 5779 5779 5778 5776 5774 5772 5771 5768 5766 5764 5762 5759 5756 5753 5751 5749 5748 5747 5746 5745 5744 5744 5743 5742 5742 5742 5742 5741 5741 5740 5740 5740
5773 5773 5777 5776 5775 5776 5776 5776 5775 5775 5774 5773 5773 5772 5771 5769 5768 5766 5764 5762 5760 5757 5755 5753 5750 5747 5745 5743 5742 5740 5739 5739 5738 5737 5736 5736 5735 5735 5734 5733 5733 5732 5732 5732
5766 5768 5768 5768 5768 5768 5768 5768 5768 5767 5767 5766 5766 5765 5764 5762 5761 5759 5757 5755 5753 5751 5748 5746 5744 5741 5739 5737 5735 5734 5733 5732 5731 5731 5730 5729 5728 5727 5726 5725 5725 5724 5724 5723
5758 5759 5760 5760 5761 5761 5761 5761 5761 5760 5760 5759 5758 5757 5756 5755 5753 5752 5750 5748 5746 5744 5742 5740 5737 5735 5733 5731 5729 5728 5727 5726 5725 5724 5723 5722 5720 5719 5718 5717 5716 5715 5715 5715
5749 5751 5752 5753 5753 5753 5753 5753 5753 5753 5752 5752 5751 5750 5749 5748 5746 5745 5743 5741 5739 5737 5735 5733 5731 5729 5726 5725 5723 5722 5720 5719 5718 5716 5715 5714 5713 5711 5710 5709 5708 5707 5707 5706
5742 5744 5744 5745 5746 5746 5746 5746 5746 5746 5745 5744 5743 5742 5741 5740 5739 5737 5736 5734 5732 5730 5728 5726 5724 5722 5720 5718 5716 5715 5713 5712 5711 5709 5708 5706 5705 5704 5702 5701 5699 5698 5698 5697
5733 5734 5734 5736 5737 5737 5737 5738 5737 5737 5737 5736 5735 5734 5733 5732 5731 5729 5728 5726 5725 5723 5721 5719 5717 5715 5713 5711 5709 5707 5706 5705 5703 5702 5700 5698 5697 5695 5693 5693 5691 5690 5689 5688
5723 5724 5725 5727 5728 5729 5729 5729 5729 5729 5728 5728 5727 5726 5725 5723 5722 5721 5720 5718 5716 5715 5713 5711 5709 5707 5705 5703 5701 5700 5698 5697 5695 5693 5692 5690 5688 5686 5685 5684 5683 5681 5680 5679
5715 5715 5716 5717 5718 5719 5720 5720 5720 5720 5720 5719 5718 5717 5716 5714 5713 5712 5711 5709 5708 5706 5704 5702 5701 5699 5697 5695 5693 5692 5690 5689 5687 5685 5683 5681 5679 5678 5676 5675 5674 5673 5672 5670
5706 5706 5707 5708 5709 5710 5710 5711 5711 5711 5711 5710 5709 5708 5706 5705 5704 5703 5701 5700 5699 5697 5695 5694 5692 5690 5688 5687 5685 5683 5682 5680 5678 5676 5675 5673 5671 5669 5668 5666 5665 5664 5663 5662
5696 5697 5698 5699 5700 5700 5701 5701 5701 5701 5701 5701 5700 5698 5697 5696 5695 5694 5692 5691 5689 5688 5686 5685 5683 5681 5680 5678 5676 5675 5673 5671 5670 5668 5666 5664 5662 5661 5659 5658 5657 5656 5654 5653
5687 5688 5689 5689 5690 5691 5691 5691 5692 5692 5691 5691 5690 5689 5688 5687 5686 5685 5683 5682 5680 5679 5677 5676 5674 5672 5671 5669 5667 5666 5664 5662 5661 5659 5657 5655 5653 5652 5650 5649 5648 5647 5646 5645
5678 5679 5679 5680 5680 5681 5682 5682 5682 5682 5681 5681 5680 5680 5679 5678 5677 5675 5674 5673 5671 5670 5669 5667 5665 5663 5661 5660 5658 5657 5655 5653 5651 5649 5647 5645 5644 5643 5641 5640 5639 5638 5637 5636
5668 5669 5669 5670 5671 5671 5672 5672 5672 5672 5672 5671 5670 5670 5669 5668 5667 5666 5664 5663 5662 5661 5659 5657 5655 5653 5651 5650 5648 5647 5645 5643 5641 5640 5638 5636 5634 5633 5632 5630 5629 5628 5627 5626
5660 5660 5660 5661 5661 5662 5662 5662 5662 5662 5662 5661 5660 5660 5659 5658 5657 5655 5654 5653 5652 5650 5649 5647 5645 5643 5642 5640 5638 5637 5635 5633 5632 5630 5628 5626 5625 5623 5622 5620 5619 5618 5618 5617
5651 5651 5651 5652 5652 5652 5653 5653 5653 5652 5652 5651 5651 5650 5649 5648 5646 5645 5644 5643 5642 5640 5638 5637 5635 5633 5632 5630 5628 5627 5625 5624 5622 5620 5618 5617 5615 5614 5613 5611 5610 5609 5608 5607
5641 5642 5642 5643 5643 5643 5643 5643 5643 5642 5642 5641 5640 5640 5638 5637 5636 5635 5634 5633 5631 5630 5628 5626 5625 5623 5621 5619 5618 5616 5615 5614 5612 5611 5609 5608 5606 5605 5604 5602 5601 5600 5599 5598
5632 5633 5633 5633 5633 5633 5633 5633 5633 5632 5632 5631 5630 5629 5628 5627 5626 5625 5623 5622 5621 5619 5617 5616 5614 5612 5611 5609 5608 5606 5605 5603 5602 5600 5599 5598 5597 5596 5594 5593 5592 5591 5590 5589
5623 5624 5624 5624 5624 5624 5624 5624 5624 5623 5622 5621 5620 5619 5618 5616 5615 5614 5613 5611 5610 5608 5607 5605 5603 5602 5600 5599 5598 5596 5594 5593 5591 5590 5589 5588 5587 5586 5585 5584 5583 5582 5581 5580
5615 5615 5615 5615 5615 5615 5615 5614 5614 5613 5612 5611 5610 5609 5607 5606 5605 5604 5603 5601 5600 5598 5597 5595 5593 5592 5590 5589 5588 5586 5584 5583 5581 5580 5579 5578 5578 5577 5575 5574 5573 5572 5571 5571
5605 5606 5606 5606 5605 5605 5605 5605 5604 5603 5602 5601 5600 5599 5598 5596 5595 5594 5593 5591 5590 5589 5587 5585 5584 5582 5581 5579 5578 5576 5575 5573 5572 5570 5569 5569 5568 5567 5566 5565 5564 5563 5562 5561